K7TUS-6 Weather Reports


Display with metric or nautical units.
time (UTC)temp
F
wind
direction
speed
MPH
gust
MPH
rain 1hr
in
rain 24hr
in
rain mn
in
humidity
%
barometer
mb
20260903094508 67 140 2.0 3.0 0.00 0.00 0.00 16 992.2
20260903084507 68 80 2.0 2.0 0.00 0.00 0.00 16 992.5
20260903081008 69 97 2.0 2.0 0.00 0.00 0.00 12 992.5
20260903074005 69 92 1.0 2.0 0.00 0.00 0.00 11 992.6
20260903072509 67 102 1.0 1.0 0.00 0.00 0.00 14 990.3
20260903072009 67 108 1.0 2.0 0.00 0.00 0.00 15 990.9
20260903070006 66 99 1.0 2.0 0.00 0.00 0.00 16 990.0
20260903063509 65 148 1.0 2.0 0.00 0.00 0.00 19 992.5
20260903061507 64 185 2.0 5.0 0.00 0.00 0.00 19 992.3
20260903055010 63 264 2.0 4.0 0.00 0.00 0.00 20 991.9
20260903053508 63 261 1.0 4.0 0.00 0.00 0.00 20 992.7
20260903050505 64 166 1.0 2.0 0.00 0.00 0.00 19 992.5
20260903044508 64 350 1.0 2.0 0.00 0.00 0.00 19 992.8
20260903043006 64 32 1.0 2.0 0.00 0.00 0.00 22 992.8
20260903035507 63 340 2.0 4.0 0.00 0.00 0.00 17 993.2
20260903032509 64 305 1.0 1.0 0.00 0.00 0.00 13 992.3
20260903031007 64 185 2.0 2.0 0.00 0.00 0.00 11 991.5
20260903015504 64 106 1.0 2.0 0.00 0.00 0.00 22 992.4
20260903015009 64 300 1.0 1.0 0.00 0.00 0.00 25 991.6
20260903011505 63 27 1.0 2.0 0.00 0.00 0.00 31 992.1
20260903010009 66 355 3.0 4.0 0.00 0.00 0.00 18 991.7
20260903000509 72 76 2.0 2.0 0.00 0.00 0.00 11 992.2
20260902223009 70 52 3.0 5.0 0.00 0.00 0.00 16 993.0
20260902212508 72 350 2.0 3.0 0.00 0.00 0.00 11 994.0
20260902211006 75 211 2.0 6.0 0.00 0.00 0.00 10 992.9
20260902160009 72 116 1.0 1.0 0.00 0.00 0.00 100 994.6
20260902145004 73 98 2.0 2.0 0.00 0.00 0.00 1 994.0
20260902144510 73 118 2.0 2.0 0.00 0.00 0.00 1 994.5
20260902135509 66 191 1.0 2.0 0.00 0.00 0.00 2 993.5
20260902132506 64 155 1.0 1.0 0.00 0.00 0.00 14 993.7
20260902121504 62 194 3.0 3.0 0.00 0.00 0.00 22 992.2